STARLINK-2570, 48405

Orbit data source: Space-Track

STARLINK-2570, 48405 is a payload satellite owned by SpaceX/Seattle (US) in LEO that was launched on Tue, 04 May 2021 UTC via an FALCON 9 launch vehicle from the Air Force Eastern Test Range (AFETR). Payload-class satellites include a variety of spacecraft equipped with specific instruments for various scientific and technological missions. These include communications satellites like Starlink; space stations such as the ISS; scientific satellites like the Hubble; Earth observation satellites from companies like Planet Labs, Umbra, and HawkEye 360; GPS; miniature CubeSats for education and research; and military/defense satellites.

Loading next visibility...
Identifier
48405, 2021-038BE
Orbit
LEO
Country
Flag of USUS
Related business
Manufacturer
SpaceX/Seattle
Mission
Operational Commercial Communications
Bus & Motor
STARLINK, Unknown motor
Mass
260 kg wet, ~248 kg dry
Launch date (UTC)
2021-05-04 (5 years ago)
Launch vehicle
FALCON 9
Launch site
Air Force Eastern Test Range (AFETR)
Object type
Payload
Rocket body
Debris
Shape & HBR
Box + 1 Pan, 10.1 m
Radar Cross Section
13.562 m², Large (>1 m²)

Expand to show TLE details & history
Last TLE update: 2 days ago

TLE from 2 days ago
0 STARLINK-2570
1 48405U 21038BE  26171.43775375  .00000253  00000-0  19890-4 0  9994
2 48405  53.1579 214.8409 0000588  98.7647 261.3421 15.31699407283178
Epoch: 2026-06-20T10:30Z
TLE epoch observation values (Epoch: 2026-06-20T10:30:21.923Z)
Latitude
Longitude
148.59717°
Altitude
471.702 km
Speed
7.631 km/s
True Right ascension
14h 19m 21s
True Declination
0° 00' 00"
Sunlit
Object was in full shadow at epoch
Visualization orbit readout
Latitude
Unknown
Longitude
Unknown
Altitude
Unknown
Speed
Unknown
Apparent Right ascension
Unknown
Apparent Declination
Unknown
Sunlit
N/A
Visualization observer readout
Local Sidereal Time
21:38:52
Azimuth
Unknown
Elevation
Unknown
Doppler factor
Unknown
Orbital elements
Apogee altitude
471.401 km
Perigee altitude
470.596 km
Semi-major axis
6,849.136 km
Eccentricity
0.00006
Inclination
53.1579°
RAAN
214.8409°
Arg. of periapsis
98.7647°
True anomaly
261.33544°
Mean anomaly
261.3421°
Eccentric anomaly
261.33877°
Mean motion
3.82904 °/min
Orbital period
94.02 mins
BSTAR
0.00001989
Loading maneuver chart data...
Computing Atmospheric mass density...

Documentation

Showing up to 5 results
|